This is the latest recevied weather packets stored in our database for station/object OE5ERN-10. If no packets are shown the sender has not sent any weather packets the latest 10 day(s).
| Time | Temp. | Humidity | Pressure | Rain* | Wind** | Luminosity | Snow |
|---|---|---|---|---|---|---|---|
| 1777170352 | 2.78° C | 80% | 1021.9 hPa | 0 mm | - | - | - |
| 1777169452 | 2.78° C | 80% | 1021.8 hPa | 0 mm | - | - | - |
| 1777168552 | 2.78° C | 79% | 1021.5 hPa | 0 mm | - | - | - |
| 1777167652 | 2.78° C | 78% | 1021.4 hPa | 0 mm | - | - | - |
| 1777166752 | 2.78° C | 77% | 1021.2 hPa | 0 mm | - | - | - |
| 1777165852 | 3.89° C | 77% | 1021.1 hPa | 0 mm | - | - | - |
| 1777164952 | 3.89° C | 77% | 1020.8 hPa | 0 mm | - | - | - |
| 1777164052 | 3.89° C | 77% | 1020.7 hPa | 0 mm | - | - | - |
| 1777163152 | 3.89° C | 76% | 1020.8 hPa | 0 mm | - | - | - |
| 1777162252 | 4.44° C | 76% | 1020.6 hPa | 0 mm | - | - | - |
| 1777161352 | 4.44° C | 75% | 1020.4 hPa | 0 mm | - | - | - |
| 1777160452 | 5° C | 75% | 1020.3 hPa | 0 mm | - | - | - |
| 1777159552 | 5° C | 73% | 1020.2 hPa | 0 mm | - | - | - |
| 1777158652 | 5.56° C | 73% | 1020.1 hPa | 0 mm | - | - | - |
| 1777157752 | 5.56° C | 72% | 1019.9 hPa | 0 mm | - | - | - |
| 1777156852 | 6.11° C | 71% | 1020.2 hPa | 0 mm | - | - | - |
| 1777155952 | 6.11° C | 70% | 1019.9 hPa | 0 mm | - | - | - |
| 1777155052 | 6.67° C | 68% | 1019.7 hPa | 0 mm | - | - | - |
| 1777154152 | 6.67° C | 67% | 1019.7 hPa | 0 mm | - | - | - |
| 1777153252 | 7.22° C | 67% | 1019.6 hPa | 0 mm | - | - | - |
| 1777152352 | 8.33° C | 65% | 1019.7 hPa | 0 mm | - | - | - |
| 1777151452 | 8.33° C | 63% | 1019.5 hPa | 0 mm | - | - | - |
| 1777150552 | 8.89° C | 62% | 1019.5 hPa | 0 mm | - | - | - |
| 1777149652 | 9.44° C | 60% | 1019.5 hPa | 0 mm | - | - | - |
| 1777148752 | 10° C | 59% | 1019.3 hPa | 0 mm | - | - | - |
* Rain latest hour (hover to see other rain measurements)
** Current wind speed in m/s (hover to see current wind gust speed)